SNEZKA Weather Reports


time (UTC)temp
C
wind
direction
speed
KPH
gust
KPH
rain 1hr
cm
rain 24hr
cm
rain mn
cm
humidity
%
barometer
mb
20260906132259 5 280 25.7 0.0 0.00 0.00 0.00 86
20260906121958 5 270 29.0 0.0 0.00 0.00 0.00 86
20260906111959 3 280 49.9 0.0 0.00 0.00 0.00 86
20260906102400 3 290 61.2 78.9 0.00 0.00 0.00 99
20260906091958 2 280 75.6 95.0 0.00 0.00 0.00 93
20260906081959 2 290 69.2 0.0 0.00 0.00 0.00 99
20260906072305 2 290 64.4 86.9 0.00 0.00 0.00 99
20260906061958 2 280 78.9 0.0 0.00 0.00 0.00 99
20260906042359 2 280 78.9 96.6 0.00 0.00 0.00 99
20260906031957 2 280 75.6 96.6 0.00 0.00 0.00 99
20260906021957 3 280 83.7 107.8 0.00 0.00 0.00 99
20260906012258 3 280 90.1 107.8 0.00 0.00 0.00 99
20260906001958 3 280 103.0 125.5 0.00 0.00 0.00 99
20260905231941 3 280 72.4 107.8 0.00 0.00 0.00 99
20260905222400 3 280 90.1 119.1 0.00 0.00 0.00 99
20260905211956 5 280 103.0 125.5 0.00 0.00 0.00 99
20260905201958 5 270 86.9 103.0 0.00 0.00 0.00 99
20260905192220 5 240 72.4 95.0 0.00 0.00 0.00 99
20260905182306 6 250 75.6 95.0 0.00 0.00 0.00 86
20260905172026 7 250 61.2 78.9 0.00 0.00 0.00 75
20260905162402 7 250 49.9 75.6 0.00 0.00 0.00 81
20260905152156 7 240 41.8 96.6 0.00 0.00 0.00 81
20260905142255 7 230 38.6 72.4 0.00 0.00 0.00 81